Regional Weather Roundup
Issued by NWS

Home | Current Version | Previous Version | Graphics & Text | Print | Product List | Glossary On
Versions: 1 2 3 4 5 6 7 8 9 10 11 12 13 14 15 16 17 18 19 20 21 22 23 24 25 26 27 28 29 30 31 32 33 34 35 36 37 38 39 40 41 42 43 44 45 46 47 48 49 50
000
ASUS43 KFSD 181802
RWRSD

WEATHER ROUNDUP FOR SOUTH DAKOTA
NATIONAL WEATHER SERVICE SIOUX FALLS SD
100 PM CDT THU SEP 18 2014

NOTE: "FAIR" INDICATES FEW OR NO CLOUDS BELOW 12,000 FEET WITH NO
SIGNIFICANT WEATHER AND/OR OBSTRUCTIONS TO VISIBILITY.


SDZ001>005-009-010-012>017-181900-
NORTHWEST AND NORTH CENTRAL SOUTH DAKOTA

CITY           SKY/WX    TMP DP  RH WIND       PRES   REMARKS
FAITH            N/A     73  61  65 S14       29.82F
MOBRIDGE       SUNNY     78  62  57 S23       29.80F
$$

SDZ012>016-024>037-041>051-057-063-072>074-181900-
SOUTHWEST AND SOUTH CENTRAL SOUTH DAKOTA

CITY           SKY/WX    TMP DP  RH WIND       PRES   REMARKS
RAPID CTY ARPT SUNNY     78  56  46 SE9       29.84F
PIERRE         SUNNY     78  58  49 S22G31    29.84F
CUSTER         SUNNY     83  35  18 VRB7      29.99F
PHILIP         SUNNY     79  63  57 S8        29.81F
PINE RIDGE     SUNNY     80  60  50 S13       29.88F
WINNER         FAIR      78  58  49 S18G28    29.89F
$$

SDZ004>011-016>023-039-040-181900-
NORTHEAST SOUTH DAKOTA

CITY           SKY/WX    TMP DP  RH WIND       PRES   REMARKS
ABERDEEN       MOSUNNY   75  61  61 S15G24    29.90F
WATERTOWN      PTSUNNY   72  60  66 S15G25    29.95F
SISSETON         N/A     59  55  87 S13       29.96F
$$

SDZ017-020-022-023-036>040-048>070-181900-
SOUTHEAST SOUTH DAKOTA

CITY           SKY/WX    TMP DP  RH WIND       PRES   REMARKS
SIOUX FALLS    MOSUNNY   75  55  49 S17       30.01F
HURON          MOSUNNY   75  62  64 S15G22    29.92F
CHAMBERLAIN    SUNNY     73  61  65 S21G29    29.90F
MITCHELL       LGT RAIN  75  63  66 S17G28    29.95F
YANKTON        MOSUNNY   73  57  56 S17       29.99F
$$

ABBREVIATIONS USED IN REMARKS
   TC - TEMPERATURE IN CELSIUS
  WCI - WIND CHILL INDEX
   HX - HEAT INDEX
  VSB - VISIBILITY



USA.gov is the U.S. government's official web portal to all federal, state and local government web resources and services.